Hazen, ND

7:08 AM CDT on May 20, 2018 (GMT -0500)
Mercer County Regional

Weather History for KHZE - October, 2011

Change the Weather History Date:

Thursday, October 13, 2011

  Actual Average (KN60) Record (KN60)
Temperature  
Mean Temperature 44 °F -  
Max Temperature 57 °F 55 °F 68 °F (1996)
Min Temperature 32 °F 31 °F 20 °F (2017)
Degree Days  
Heating Degree Days 20    
Moisture  
Dew Point 37 °F    
Average Humidity 72    
Maximum Humidity 100    
Minimum Humidity 41    
Precipitation  
Precipitation 0.00 in - - ()
Sea Level Pressure  
Sea Level Pressure 29.82 in    
Wind  
Wind Speed 8 mph (WNW)    
Max Wind Speed 28 mph    
Max Gust Speed 36 mph    
Visibility 10 miles    
Events      
Averages and records for this station are not official NWS values.
T = Trace of Precipitation, MM = Missing Value Source: NWS Daily Summary

Daily Weather History Graph

Daily Weather History Graph

Search for Another Location

Airport or City:

Astronomy

Oct. 13, 2011 Rise Set
Actual Time 8:01 AM CDT 7:02 PM CDT
Civil Twilight 7:30 AM CDT 7:33 PM CDT
Nautical Twilight 6:55 AM CDT 8:08 PM CDT
Astronomical Twilight 6:19 AM CDT 8:44 PM CDT
Moon 7:27 PM CDT (10/13) 9:46 AM CDT (10/13)
Length of Visible Light 12h 02m
Length of Day
11h 01m
Full, 98% of the Moon is Illuminated
Oct 13
Full
Oct 19
Last Quarter
Oct 26
New
Nov 2
First Quarter
Nov 10
Full

Hourly Weather History & Observations

Time (CDT) Temp. Windchill Dew Point Humidity Pressure Visibility Wind Dir Wind Speed Gust Speed Precip Events Conditions
12:15 AM 44.6 °F - 41.0 °F 87% 29.85 in 10.0 mi Calm Calm - N/A   Mostly Cloudy
12:35 AM 41.0 °F - 37.4 °F 87% 29.85 in 10.0 mi Calm Calm - N/A   Partly Cloudy
1:15 AM 42.8 °F 40.1 °F 39.2 °F 87% 29.84 in 10.0 mi South 4.6 mph - N/A   Mostly Cloudy
1:35 AM 41.0 °F - 39.2 °F 93% 29.84 in 10.0 mi Calm Calm - N/A   Mostly Cloudy
1:55 AM 39.2 °F - 37.4 °F 93% 29.84 in 10.0 mi Calm Calm - N/A   Scattered Clouds
2:15 AM 39.2 °F 35.9 °F 39.2 °F 100% 29.85 in 10.0 mi NW 4.6 mph - N/A   Overcast
2:35 AM 39.2 °F 37.0 °F 37.4 °F 93% 29.84 in 10.0 mi South 3.5 mph - N/A   Mostly Cloudy
2:55 AM 37.4 °F 34.9 °F 37.4 °F 100% 29.84 in 10.0 mi SSW 3.5 mph - N/A   Mostly Cloudy
3:15 AM 37.4 °F 33.8 °F 35.6 °F 93% 29.83 in 10.0 mi South 4.6 mph - N/A   Partly Cloudy
3:35 AM 35.6 °F 30.7 °F 35.6 °F 100% 29.83 in 10.0 mi South 5.8 mph - N/A   Clear
3:55 AM 35.6 °F 31.7 °F 35.6 °F 100% 29.82 in 10.0 mi South 4.6 mph - N/A   Clear
4:15 AM 37.4 °F - 35.6 °F 93% 29.82 in 10.0 mi Calm Calm - N/A   Clear
4:35 AM 35.6 °F - 35.6 °F 100% 29.82 in 10.0 mi Calm Calm - N/A   Clear
4:55 AM 35.6 °F 31.7 °F 33.8 °F 93% 29.83 in 10.0 mi WSW 4.6 mph - N/A   Clear
5:15 AM 33.8 °F - 32.0 °F 93% 29.82 in 10.0 mi Calm Calm - N/A   Clear
5:35 AM 32.0 °F - 32.0 °F 100% 29.82 in 10.0 mi Calm Calm - N/A   Clear
5:55 AM 33.8 °F 27.7 °F 32.0 °F 93% 29.82 in 10.0 mi WSW 6.9 mph - N/A   Scattered Clouds
6:15 AM 35.6 °F 30.7 °F 33.8 °F 93% 29.82 in 10.0 mi WSW 5.8 mph - N/A   Overcast
6:35 AM 35.6 °F 29.9 °F 33.8 °F 93% 29.82 in 10.0 mi WSW 6.9 mph - N/A   Overcast
6:55 AM 37.4 °F 32.1 °F 35.6 °F 93% 29.82 in 10.0 mi West 6.9 mph - N/A   Overcast
7:35 AM 37.4 °F 31.4 °F 35.6 °F 93% 29.81 in 10.0 mi SW 8.1 mph - N/A   Overcast
7:55 AM 37.4 °F 31.4 °F 33.8 °F 87% 29.80 in 10.0 mi SSW 8.1 mph - N/A   Mostly Cloudy
8:15 AM 39.2 °F 32.5 °F 33.8 °F 81% 29.80 in 10.0 mi SW 10.4 mph - N/A   Partly Cloudy
8:35 AM 39.2 °F 33.0 °F 33.8 °F 81% 29.81 in 10.0 mi SW 9.2 mph - N/A   Clear
8:55 AM 39.2 °F 32.5 °F 35.6 °F 87% 29.81 in 10.0 mi WSW 10.4 mph - N/A   Clear
9:15 AM 41.0 °F 38.0 °F 35.6 °F 81% 29.81 in 10.0 mi West 4.6 mph - N/A   Clear
9:35 AM 42.8 °F 38.6 °F 35.6 °F 76% 29.81 in 10.0 mi WSW 6.9 mph - N/A   Clear
9:55 AM 44.6 °F 40.2 °F 37.4 °F 76% 29.81 in 10.0 mi West 8.1 mph - N/A   Clear
10:15 AM 48.2 °F - 35.6 °F 62% 29.80 in 10.0 mi West 10.4 mph - N/A   Clear
10:35 AM 50.0 °F - 35.6 °F 58% 29.81 in 10.0 mi WNW 16.1 mph - N/A   Clear
10:55 AM 50.0 °F - 35.6 °F 58% 29.81 in 10.0 mi WNW 16.1 mph 26.5 mph N/A   Mostly Cloudy
11:15 AM 53.6 °F - 35.6 °F 51% 29.81 in 10.0 mi NW 20.7 mph 25.3 mph N/A   Mostly Cloudy
11:35 AM 53.6 °F - 37.4 °F 54% 29.81 in 10.0 mi NW 20.7 mph 25.3 mph N/A   Partly Cloudy
11:55 AM 53.6 °F - 39.2 °F 58% 29.81 in 10.0 mi NW 20.7 mph 26.5 mph N/A   Clear
12:15 PM 53.6 °F - 39.2 °F 58% 29.81 in 10.0 mi WNW 23.0 mph 29.9 mph N/A   Partly Cloudy
12:35 PM 55.4 °F - 41.0 °F 58% 29.81 in 10.0 mi NW 24.2 mph 33.4 mph N/A   Partly Cloudy
12:55 PM 55.4 °F - 39.2 °F 54% 29.81 in 10.0 mi NW 20.7 mph 33.4 mph N/A   Partly Cloudy
1:15 PM 57.2 °F - 39.2 °F 51% 29.81 in 10.0 mi NW 27.6 mph 33.4 mph N/A   Partly Cloudy
1:35 PM 57.2 °F - 39.2 °F 51% 29.81 in 10.0 mi NW 21.9 mph 31.1 mph N/A   Scattered Clouds
1:55 PM 57.2 °F - 37.4 °F 48% 29.80 in 10.0 mi NW 20.7 mph 34.5 mph N/A   Scattered Clouds
2:15 PM 55.4 °F - 37.4 °F 51% 29.80 in 10.0 mi NW 24.2 mph 33.4 mph N/A   Mostly Cloudy
2:35 PM 57.2 °F - 37.4 °F 48% 29.79 in 10.0 mi NW 23.0 mph 34.5 mph N/A   Mostly Cloudy
2:55 PM 57.2 °F - 37.4 °F 48% 29.79 in 10.0 mi NW 24.2 mph 31.1 mph N/A   Mostly Cloudy
3:15 PM 55.4 °F - 35.6 °F 47% 29.79 in 10.0 mi WNW 23.0 mph 27.6 mph N/A   Scattered Clouds
3:35 PM 55.4 °F - 37.4 °F 51% 29.79 in 10.0 mi NW 18.4 mph 28.8 mph N/A   Mostly Cloudy
3:55 PM 57.2 °F - 35.6 °F 44% 29.78 in 10.0 mi NW 18.4 mph 24.2 mph N/A   Mostly Cloudy
4:15 PM 55.4 °F - 32.0 °F 41% 29.78 in 10.0 mi NW 21.9 mph 29.9 mph N/A   Partly Cloudy
4:35 PM 57.2 °F - 33.8 °F 41% 29.78 in 10.0 mi WNW 25.3 mph 29.9 mph N/A   Partly Cloudy
4:55 PM 57.2 °F - 35.6 °F 44% 29.79 in 10.0 mi NW 17.3 mph 26.5 mph N/A   Mostly Cloudy
5:15 PM 55.4 °F - 37.4 °F 51% 29.79 in 10.0 mi NW 18.4 mph 26.5 mph N/A   Mostly Cloudy
5:35 PM 55.4 °F - 35.6 °F 47% 29.79 in 10.0 mi NW 24.2 mph 29.9 mph N/A   Scattered Clouds
5:55 PM 53.6 °F - 37.4 °F 54% 29.80 in 10.0 mi NNW 20.7 mph 29.9 mph N/A   Mostly Cloudy
6:15 PM 53.6 °F - 37.4 °F 54% 29.81 in 10.0 mi NW 19.6 mph - N/A   Mostly Cloudy
6:35 PM 53.6 °F - 37.4 °F 54% 29.82 in 10.0 mi WNW 25.3 mph 35.7 mph N/A   Overcast
7:15 PM 48.2 °F - 37.4 °F 66% 29.84 in 10.0 mi West 10.4 mph - N/A   Overcast
7:35 PM 48.2 °F - 39.2 °F 71% 29.84 in 10.0 mi WNW 9.2 mph - N/A   Mostly Cloudy
7:55 PM 46.4 °F 42.4 °F 39.2 °F 76% 29.84 in 10.0 mi WNW 8.1 mph - N/A   Scattered Clouds
8:15 PM 46.4 °F 42.9 °F 39.2 °F 76% 29.85 in 10.0 mi WNW 6.9 mph - N/A   Mostly Cloudy
9:15 PM 48.2 °F - 39.2 °F 71% 29.86 in 10.0 mi NW 12.7 mph - N/A   Overcast
9:35 PM 48.2 °F - 39.2 °F 71% 29.86 in 10.0 mi North - - N/A   Overcast
9:55 PM 48.2 °F - 41.0 °F 76% 29.87 in 10.0 mi NW 11.5 mph 20.7 mph N/A   Mostly Cloudy
10:15 PM 48.2 °F - 41.0 °F 76% 29.87 in 10.0 mi NW 12.7 mph 18.4 mph N/A   Mostly Cloudy
10:35 PM 46.4 °F 42.9 °F 41.0 °F 81% 29.87 in 10.0 mi WNW 6.9 mph - N/A   Mostly Cloudy
10:55 PM 42.8 °F 39.3 °F 39.2 °F 87% 29.87 in 10.0 mi SW 5.8 mph - N/A   Mostly Cloudy
11:15 PM 41.0 °F 37.1 °F 39.2 °F 93% 29.88 in 10.0 mi West 5.8 mph - N/A   Mostly Cloudy
11:35 PM 41.0 °F 35.8 °F 37.4 °F 87% 29.88 in 10.0 mi West 8.1 mph - N/A   Scattered Clouds
11:55 PM 41.0 °F - 37.4 °F 87% 29.88 in 10.0 mi North - - N/A   Clear